Weather History for Bad Axe, MI

Change the Weather History Date:

Thursday, January 24, 2013

  Actual Average (KP58) Record (KP58)
Temperature  
Mean Temperature 6 °F -  
Max Temperature 15 °F 25 °F 36 °F (2006)
Min Temperature -4 °F 15 °F -5 °F (2011)
Degree Days  
Heating Degree Days 60    
Moisture  
Dew Point 3 °F    
Average Humidity 75    
Maximum Humidity 87    
Minimum Humidity 59    
Precipitation  
Precipitation 0.00 in - - ()
Sea Level Pressure  
Sea Level Pressure 30.43 in    
Wind  
Wind Speed 8 mph (NNW)    
Max Wind Speed 15 mph    
Max Gust Speed 28 mph    
Visibility 8 miles    
Events Snow    
Averages and records for this station are not official NWS values.
T = Trace of Precipitation, MM = Missing Value Source: NWS Daily Summary

Daily Weather History Graph

Daily Weather History Graph

Search for Another Location

Airport:

Trip Planner

Search our weather history database for the weather conditions in past years. The results will help you decide how hot, cold, wet, or windy it might be!

Date:

Astronomy

Jan. 24, 2013 Rise Set
Actual Time 7:56 AM EST 5:32 PM EST
Civil Twilight 7:25 AM EST 6:03 PM EST
Nautical Twilight 6:50 AM EST 6:38 PM EST
Astronomical Twilight 6:16 AM EST 7:12 PM EST
Moon 3:32 PM EST (1/24) 5:54 AM EST (1/24)
Length of Visible Light 10h 38m
Length of Day
9h 35m
Waxing Gibbous, 94% of the Moon is Illuminated
Jan 24
Waxing Gibbous
Jan 26
Full
Feb 3
Last Quarter
Feb 10
New
Feb 17
First Quarter

Hourly Weather History & Observations

Time (EST) Temp. Windchill Dew Point Humidity Pressure Visibility Wind Dir Wind Speed Gust Speed Precip Events Conditions
12:13 AM 12.7 °F 3.6 °F 9.1 °F 86% 30.10 in 1.8 mi WNW 5.8 mph - N/A Snow Light Snow
12:34 AM 12.7 °F 5.0 °F 9.1 °F 86% 30.11 in 3.0 mi WNW 4.6 mph - N/A Snow Light Snow
12:54 AM 11.7 °F -0.9 °F 7.5 °F 83% 30.11 in 10.0 mi NNW 9.2 mph - N/A   Mostly Cloudy
1:14 AM 13.3 °F 0.3 °F 7.9 °F 79% 30.12 in 7.0 mi NW 10.4 mph - N/A Snow Light Snow
1:34 AM 13.5 °F -0.2 °F 7.3 °F 77% 30.13 in 7.0 mi NNW 11.5 mph - N/A   Overcast
1:54 AM 13.8 °F 1.0 °F 7.5 °F 76% 30.14 in 10.0 mi NW 10.4 mph - N/A   Overcast
2:14 AM 14.0 °F 1.2 °F 8.4 °F 78% 30.15 in 1.5 mi NNW 10.4 mph - N/A Snow Light Snow
2:34 AM 14.4 °F 5.5 °F 11.1 °F 87% 30.16 in 0.5 mi NNW 5.8 mph - N/A Snow Heavy Snow
2:54 AM 15.6 °F 1.8 °F 12.4 °F 87% 30.17 in 1.2 mi NNE 12.7 mph 27.6 mph N/A Snow Light Snow
3:14 AM 15.6 °F 1.2 °F 10.8 °F 81% 30.19 in 5.0 mi North 13.8 mph 25.3 mph N/A Snow Light Snow
3:34 AM 14.9 °F 0.9 °F 6.6 °F 70% 30.20 in 10.0 mi North 12.7 mph 19.6 mph N/A   Mostly Cloudy
3:54 AM 15.3 °F 1.4 °F 8.4 °F 74% 30.23 in 5.0 mi North 12.7 mph 18.4 mph N/A Snow Light Snow
4:14 AM 14.5 °F -0.2 °F 7.7 °F 74% 30.25 in 4.0 mi North 13.8 mph 24.2 mph N/A Snow Light Snow
4:34 AM 14.0 °F 0.5 °F 7.5 °F 75% 30.27 in 5.0 mi North 11.5 mph 20.7 mph N/A Snow Light Snow
4:54 AM 14.0 °F 1.2 °F 8.4 °F 78% 30.29 in 4.0 mi North 10.4 mph 20.7 mph N/A Snow Light Snow
5:14 AM 12.9 °F -0.2 °F 4.1 °F 68% 30.30 in 10.0 mi North 10.4 mph - N/A   Scattered Clouds
5:33 AM 13.1 °F -2.6 °F 4.8 °F 70% 30.32 in 10.0 mi North 15.0 mph 19.6 mph N/A   Mostly Cloudy
5:54 AM 13.1 °F -2.0 °F 8.4 °F 82% 30.34 in 1.0 mi North 13.8 mph 19.6 mph N/A Snow Light Snow
6:14 AM 11.8 °F -3.6 °F 6.1 °F 78% 30.36 in 10.0 mi North 13.8 mph - N/A   Mostly Cloudy
6:35 AM 12.0 °F -2.7 °F 7.7 °F 83% 30.37 in 5.0 mi North 12.7 mph 17.3 mph N/A Snow Light Snow
6:54 AM 11.5 °F -1.9 °F 5.4 °F 76% 30.39 in 5.0 mi North 10.4 mph 17.3 mph N/A Snow Light Snow
7:14 AM 11.3 °F 0.7 °F 5.9 °F 79% 30.40 in 3.0 mi North 6.9 mph - N/A Snow Light Snow
7:34 AM 11.7 °F -1.7 °F 7.5 °F 83% 30.42 in 1.8 mi North 10.4 mph - N/A Snow Light Snow
7:54 AM 11.1 °F -3.9 °F 6.8 °F 83% 30.43 in 3.0 mi North 12.7 mph 16.1 mph N/A Snow Light Snow
8:14 AM 10.2 °F -2.7 °F 5.5 °F 81% 30.44 in 7.0 mi North 9.2 mph - N/A Snow Light Snow
8:34 AM 9.5 °F -4.4 °F 5.2 °F 83% 30.45 in 4.0 mi North 10.4 mph - N/A Snow Light Snow
8:54 AM 10.4 °F -0.4 °F 5.7 °F 81% 30.46 in 3.0 mi North 6.9 mph - N/A Snow Light Snow
9:14 AM 10.4 °F -2.4 °F 5.7 °F 81% 30.48 in 7.0 mi North 9.2 mph - N/A   Mostly Cloudy
9:34 AM 10.9 °F -0.8 °F 5.9 °F 80% 30.48 in 2.5 mi North 8.1 mph - N/A   Haze
9:54 AM 11.3 °F -1.3 °F 5.5 °F 78% 30.50 in 2.5 mi North 9.2 mph - N/A   Haze
10:14 AM 12.0 °F -3.4 °F 5.7 °F 76% 30.51 in 5.0 mi North 13.8 mph 18.4 mph N/A   Haze
10:34 AM 12.6 °F -1.4 °F 6.8 °F 78% 30.53 in 2.5 mi NNW 11.5 mph - N/A Snow Light Snow
10:54 AM 11.7 °F -3.8 °F 6.6 °F 80% 30.53 in 1.0 mi NNW 13.8 mph - N/A Snow Light Snow
11:14 AM 12.2 °F -1.0 °F 5.2 °F 73% 30.55 in 10.0 mi NNW 10.4 mph - N/A   Mostly Cloudy
11:34 AM 12.2 °F -2.5 °F 4.5 °F 71% 30.55 in 10.0 mi NNW 12.7 mph - N/A   Scattered Clouds
11:54 AM 12.6 °F -0.6 °F 4.1 °F 69% 30.54 in 10.0 mi NNW 10.4 mph - N/A   Clear
12:14 PM 11.8 °F -0.7 °F 4.1 °F 71% 30.53 in 10.0 mi NNW 9.2 mph - N/A   Mostly Cloudy
12:34 PM 12.4 °F -0.8 °F 4.8 °F 72% 30.53 in 5.0 mi NNW 10.4 mph - N/A Snow Light Snow
12:54 PM 12.4 °F -0.8 °F 4.5 °F 71% 30.53 in 7.0 mi NW 10.4 mph - N/A   Scattered Clouds
1:15 PM 12.9 °F -0.2 °F 4.5 °F 69% 30.53 in 7.0 mi NW 10.4 mph - N/A   Mostly Cloudy
1:34 PM 11.7 °F 1.1 °F 3.4 °F 69% 30.54 in 10.0 mi NW 6.9 mph - N/A   Mostly Cloudy
1:54 PM 12.0 °F 1.5 °F 2.7 °F 66% 30.54 in 10.0 mi NNW 6.9 mph - N/A   Scattered Clouds
2:15 PM 12.2 °F 2.9 °F 2.3 °F 65% 30.54 in 10.0 mi NNW 5.8 mph - N/A   Scattered Clouds
2:34 PM 12.2 °F -0.2 °F 2.5 °F 65% 30.54 in 10.0 mi North 9.2 mph - N/A   Mostly Cloudy
2:54 PM 12.2 °F 0.7 °F 1.8 °F 63% 30.54 in 10.0 mi NNW 8.1 mph - N/A   Mostly Cloudy
3:15 PM 11.8 °F 2.5 °F 0.7 °F 61% 30.55 in 10.0 mi NW 5.8 mph - N/A   Clear
3:34 PM 11.3 °F 3.3 °F -0.2 °F 60% 30.54 in 10.0 mi NNW 4.6 mph - N/A   Clear
3:54 PM 11.3 °F 1.9 °F -0.0 °F 60% 30.55 in 10.0 mi NW 5.8 mph - N/A   Clear
4:15 PM 11.7 °F 2.3 °F 0.5 °F 61% 30.55 in 10.0 mi WNW 5.8 mph - N/A   Clear
4:34 PM 11.3 °F 1.9 °F -0.4 °F 59% 30.55 in 10.0 mi NW 5.8 mph - N/A   Clear
4:54 PM 10.6 °F 2.5 °F -0.8 °F 60% 30.56 in 10.0 mi West 4.6 mph - N/A   Clear
5:14 PM 9.5 °F 3.0 °F -1.3 °F 62% 30.57 in 10.0 mi West 3.5 mph - N/A   Clear
5:34 PM 6.8 °F -0.1 °F -2.2 °F 67% 30.56 in 10.0 mi WSW 3.5 mph - N/A   Clear
5:55 PM 5.4 °F - -2.4 °F 70% 30.56 in 10.0 mi Calm Calm - N/A   Clear
6:14 PM 2.8 °F - -3.6 °F 74% 30.56 in 10.0 mi Calm Calm - N/A   Clear
6:34 PM 1.8 °F - -4.5 °F 75% 30.55 in 10.0 mi Calm Calm - N/A   Clear
6:55 PM 0.5 °F - -5.1 °F 77% 30.55 in 10.0 mi Calm Calm - N/A   Clear
7:14 PM 0.9 °F - -4.7 °F 77% 30.54 in 10.0 mi Calm Calm - N/A   Clear
7:34 PM -2.7 °F - -7.8 °F 79% 30.54 in 10.0 mi Calm Calm - N/A   Clear
7:55 PM -1.5 °F - -6.2 °F 80% 30.54 in 10.0 mi Calm Calm - N/A   Clear
8:14 PM -0.9 °F - -4.7 °F 84% 30.53 in 10.0 mi Calm Calm - N/A   Clear
8:35 PM -0.0 °F - -4.5 °F 81% 30.52 in 10.0 mi Calm Calm - N/A   Clear
8:54 PM -2.0 °F - -7.2 °F 78% 30.51 in 10.0 mi Calm Calm - N/A   Clear
9:14 PM -4.2 °F - -8.5 °F 82% 30.51 in 10.0 mi Calm Calm - N/A   Clear
9:35 PM -3.6 °F - -8.0 °F 82% 30.50 in 10.0 mi Calm Calm - N/A   Clear
9:54 PM -3.3 °F - -7.2 °F 83% 30.50 in 10.0 mi Calm Calm - N/A   Clear
10:14 PM -2.2 °F - -6.2 °F 83% 30.49 in 10.0 mi Calm Calm - N/A   Clear
10:35 PM -1.3 °F - -5.4 °F 83% 30.50 in 10.0 mi Calm Calm - N/A   Clear
10:54 PM 0.3 °F - -4.0 °F 82% 30.49 in 10.0 mi Calm Calm - N/A   Clear
11:13 PM 1.0 °F - -3.5 °F 81% 30.49 in 10.0 mi Calm Calm - N/A   Clear
11:34 PM 2.5 °F - -2.2 °F 81% 30.49 in 10.0 mi Calm Calm - N/A   Clear
11:54 PM 2.3 °F - -3.1 °F 78% 30.48 in 10.0 mi Calm Calm - N/A   Clear